Regional Weather Roundup
Issued by NWS Boston, MA

Home | Current Version | Previous Version | Text Only | Print | Product List | Glossary On
Versions: 1 2 3 4 5 6 7 8 9 10 11 12 13 14 15 16 17 18 19 20 21 22 23 24 25 26 27
000
ASUS41 KBOX 261610
RWRBOX

REGIONAL WEATHER ROUNDUP
NATIONAL WEATHER SERVICE TAUNTON MA
1200 PM EDT MON JUN 26 2017

NOTE:  "FAIR" INDICATES FEW OR NO CLOUDS BELOW 12,000 FEET WITH NO
SIGNIFICANT WEATHER AND/OR OBSTRUCTIONS TO VISIBILITY.

MAZALL-261700-
EASTERN MASSACHUSETTS

CITY           SKY/WX    TMP DP  RH WIND       PRES   REMARKS
BOSTON         MOSUNNY   75  48  38 W13       29.97F
BEVERLY        MOSUNNY   73  53  49 W12G20    29.97S
LAWRENCE       MOSUNNY   75  50  41 W8G18     29.99S
BEDFORD        PTSUNNY   74  50  42 NW13G20   29.97S
BLUE HILL        N/A     73  48  41 NW12G22   29.98F
NORWOOD        SUNNY     76  52  43 NW8G17    29.97F
MARSHFIELD     SUNNY     75  48  38 VRB6G14   29.97F
PLYMOUTH       SUNNY     74  50  42 W10G16    29.99F
TAUNTON        MOSUNNY   75  50  41 W6        29.98F
NEW BEDFORD    SUNNY     75  51  43 W10G20    29.99S
$$

MAZALL-261700-
CAPE COD AND THE ISLANDS

CITY           SKY/WX    TMP DP  RH WIND       PRES   REMARKS
FALMOUTH       SUNNY     75  50  41 W6G18     30.00
HYANNIS        SUNNY     76  53  44 N8        29.98S
CHATHAM        SUNNY     76  54  46 SW8G16    30.00S
PROVINCETOWN   SUNNY     71  53  52 NW8       29.99F
NANTUCKET      SUNNY     75  53  46 VRB7      30.01R
MARTHAS VNYRD  SUNNY     74  52  46 CALM      30.00S
$$

MAZALL-261700-
CENTRAL AND WESTERN MASSACHUSETTS

CITY           SKY/WX    TMP DP  RH WIND       PRES   REMARKS
WORCESTER      MOSUNNY   68  49  50 W10       30.02S
FITCHBURG      MOSUNNY   74  51  44 W14       29.99F
ORANGE         MOSUNNY   72  51  47 W10       29.99F
SPRINGFIELD    MOSUNNY   73  53  49 NW3       29.99S
WESTFIELD      MOSUNNY   73  52  47 W7        30.00F
NORTH ADAMS    CLOUDY    67  52  58 VRB3      30.00S
PITTSFIELD     MOSUNNY   67  51  56 NW8       30.01S
$$

RIZALL-261700-
RHODE ISLAND

CITY           SKY/WX    TMP DP  RH WIND       PRES   REMARKS
PROVIDENCE     MOSUNNY   75  53  46 NW12      30.00F
NEWPORT        SUNNY     74  54  49 NW6       30.00F
BLOCK ISLAND   SUNNY     73  52  47 W10       30.03S
WESTERLY       SUNNY     75  53  46 SW10      30.02S
$$

CTZALL-261700-
CONNECTICUT

CITY           SKY/WX    TMP DP  RH WIND       PRES   REMARKS
BRADLEY INTL   PTSUNNY   75  49  39 NW7       30.00F
HARTFORD       MOSUNNY   75  52  44 W9        30.00F
BRIDGEPORT     MOSUNNY   75  52  43 MISG      30.02S
DANBURY        MOSUNNY   73  52  46 W8        30.04S
GROTON         SUNNY     72  53  51 SW12      30.01S
NEW HAVEN      PTSUNNY   72  55  56 SW10      30.02S
CHESTER        FAIR      73  55  53 S12       30.02S
MERIDEN        MOSUNNY   74  51  44 SW8       30.01S
WILLIMANTIC    MOSUNNY   76  51  41 NW10      30.01S
OXFORD         MOSUNNY   72  48  43 NW8       30.04S
$$

MEZ002-015-021-024-NHZ003-005-008-011-012-014-VTZ005-008-261700-
NORTHERN NEW ENGLAND

CITY           SKY/WX    TMP DP  RH WIND       PRES   REMARKS
PORTLAND ME    MOSUNNY   72  47  40 NW12      29.94S
BANGOR ME      MOSUNNY   70  51  51 VRB7      29.90S
CONCORD NH     SUNNY     73  47  39 NW14G21   29.97S
MANCHESTER NH  MOSUNNY   73  44  35 W9G20     29.96S
NASHUA NH      PTSUNNY   73  49  42 W7        29.98S
PORTSMOUTH NH  MOSUNNY   74  49  40 W7G17     29.95S
JAFFREY NH     PTSUNNY   71  49  45 VRB5      30.00S
KEENE NH       PTSUNNY   71  49  45 VRB6      29.98F
BURLINGTON VT  PTSUNNY   69  47  45 VRB3      29.98R
MT. WASHINGTON FOG       37  37 100 NW30        N/A  VSB 0   WCI  25
$$

NYZ052-076-261700-
EASTERN NEW YORK

CITY           SKY/WX    TMP DP  RH WIND       PRES   REMARKS
ALBANY         PTSUNNY   72  54  53 W7        30.00S
NEW YORK CITY  MOSUNNY   76  48  37 NW12G20   30.02F
$$

ANZALL-261700-
MARINE OBSERVATIONS

STATION/POSITION TIME  TEMP    WIND        PRES    VSBY  WAVE
                       AIR SEA DIR/SP/G                  HT/PER
                 (UTC) (F)     (DEG/KT/KT) (MB)    (MI)  (FT/S)
BOSTON BUOY      1450   62 60  220/  6/  8 1015.3          1/ 6
BUZZARDS BAY     1500   63     240/ 12/ 12 1016.4F
NANTUCKET SOUND  1550      67              1015.8S         1
MASS BAY-STELLWA 1504   62 58  230/  8/  8 1014.5R         1/ 6
ISLE OF SHOALS   1500   66     260/  8/  9 1014.4R
S OF BLOCK IS    1525      65                N/A           3/ 7
$$

......................KEY.........................
  SKY/WX - SKY CONDITION/PRESENT WEATHER
  TMP    - TEMPERATURE IN FAHRENHEIT
  DWPT   - DEWPOINT IN FAHRENHEIT
  RH     - RELATIVE HUMIDITY IN PERCENT
  WIND   - DIRECTION AND SPEED IN MPH
  PRES   - MEAN SEA LEVEL PRESSURE IN INCHES OF HG
  WCI    - WIND CHILL INDEX
  VSB    - VISIBILITY IN MILES
  HX     - HEAT INDEX
  TC     - TEMPERATURE IN CELSIUS
  VRB    - VARIABLE WIND DIRECTION
  N/A    - NOT AVAILABLE




USA.gov is the U.S. government's official web portal to all federal, state and local government web resources and services.